Location: Errabaliem
(16.8108°N, 80.4255°E)
Time: 12:38:39
(UTC+00:00)

H-2A R/B - Pass Details

Date: 05 August 2024
Orbit: 731 x 832 km, 98.2° (Epoch: 11 September)

Event Time Altitude Azimuth Distance (km) Brightness Sun altitude
Rises 23:01:30 0° 1° (N) 3,177 5.5 -18.3°
Reaches altitude 10° 23:03:51 10° 355° (N) 2,264 4.7 -17.8°
Maximum altitude 23:08:33 43° 284° (WNW) 1,052 2.3 -16.8°
Enters shadow 23:11:09 24° 227° (SW) 1,536 3.0 -16.2°
